sat.trackr.live / text

‹ back to catalog

STARLINK-30757

NORAD 58131 · 2023-162P

PAYLOAD ACTIVE UNKNOWN

§ Identity

Operator
Country
US
Launch date
2023-10-22
Launch site
AFETR
Launch vehicle
Mass (kg)
RCS (m²)

Purposes: comms

External: N2YO · Heavens-Above · Gunter

§ Orbital elements

Epoch: 2026-05-25T02:38:07.484640Z

Period
94.27 min
Inclination
43.0030°
Eccentricity
0.0000825
Mean motion
15.27577995 rev/d
Perigee alt
482.5 km
Apogee alt
483.6 km
Semi-major
6,861.2 km
B*
3.8025e-6
RAAN
57.5823°
Arg perigee
253.4957°
Mean anomaly
106.5805°
Rev number
14,403

§ Raw data

STARLINK-307571 58131U 23162P   26145.10980885 -.00000157  00000+0  38025-5 0  99952 58131  43.0030  57.5823 0000825 253.4957 106.5805 15.27577995144034

JSON: /api/v1/satellites/58131 · /tle

For live sub-satellite position, see the globe view (requires WebGL).

§ Visibility from observer

Set your observer location to see the next 7 days of passes ≥ 10°. The values pass through the URL so the page stays shareable.

No JS? Fill the form by hand. The geolocation button needs JavaScript.